COSMOS 2228

Last updated on Wed Jul 02 2025 00:02:14 GMT+0000 (Coordinated Universal Time)

1 22286U 92094A 25182.57086627 .00001648 00000+0 14493-3 0 9995 2 22286 82.5187 117.4676 0020269 69.1576 291.1814 14.95769400738502
UTC large
Height (km)
Speed (km/s)
/
Latitude / Longitude
Inclination (degrees)
Orbital Period (minutes)
Azimuth
Elevation
Range (km)
Doppler Factor

Next 0 passes for location: London (51.5072 / 0.1276)

Sorry there are no passes over London.